Time,TemperatureF,DewpointF,PressureIn,WindDirection,WindDirectionDegrees,WindSpeedMPH,WindSpeedGustMPH,Humidity,HourlyPrecipIn,Conditions,Clouds,dailyrainin,SoftwareType,DateUTC
2013-03-14 00:02:00,61.2,26.9,30.06,NE,45,0.0,0.0,27,0.00,,---,0.00,VWS V14.01,2013-03-14 07:02:00,
2013-03-14 00:07:00,61.2,26.9,30.06,NNE,22,0.0,0.0,27,0.00,,---,0.00,VWS V14.01,2013-03-14 07:07:00,
2013-03-14 00:12:00,61.2,26.9,30.06,NNW,338,0.0,0.0,27,0.00,,---,0.00,VWS V14.01,2013-03-14 07:12:00,
2013-03-14 00:17:00,61.2,26.9,30.06,NNW,338,0.0,0.0,27,0.00,,---,0.00,VWS V14.01,2013-03-14 07:17:00,
2013-03-14 00:22:00,61.0,26.8,30.06,NNW,338,0.0,0.0,27,0.00,,---,0.00,VWS V14.01,2013-03-14 07:22:00,
2013-03-14 00:28:00,61.0,26.8,30.06,NNW,338,0.0,0.0,27,0.00,,---,0.00,VWS V14.01,2013-03-14 07:28:00,
2013-03-14 00:33:00,60.3,26.2,30.06,North,0,0.0,0.0,27,0.00,,---,0.00,VWS V14.01,2013-03-14 07:33:00,
2013-03-14 00:38:00,60.3,26.2,30.06,NW,315,0.0,0.0,27,0.00,,---,0.00,VWS V14.01,2013-03-14 07:38:00,
2013-03-14 00:43:00,60.1,26.9,30.06,North,0,0.0,0.0,28,0.00,,---,0.00,VWS V14.01,2013-03-14 07:43:00,
2013-03-14 00:48:00,59.5,26.4,30.06,North,0,0.0,0.0,28,0.00,,---,0.00,VWS V14.01,2013-03-14 07:48:00,
2013-03-14 00:53:00,59.4,26.3,30.06,North,0,0.0,0.0,28,0.00,,---,0.00,VWS V14.01,2013-03-14 07:53:00,
2013-03-14 00:58:00,59.7,26.6,30.06,NNW,338,0.0,0.0,28,0.00,,---,0.00,VWS V14.01,2013-03-14 07:58:00,
2013-03-14 01:03:00,59.7,26.6,30.06,NNW,338,0.0,0.0,28,0.00,,---,0.00,VWS V14.01,2013-03-14 08:03:00,
2013-03-14 01:08:00,59.7,26.6,30.06,NW,315,0.0,0.0,28,0.00,,---,0.00,VWS V14.01,2013-03-14 08:08:00,
2013-03-14 01:13:00,59.5,26.4,30.06,NW,315,0.0,0.0,28,0.00,,---,0.00,VWS V14.01,2013-03-14 08:13:00,
2013-03-14 01:18:00,59.5,26.4,30.06,NW,315,0.0,0.0,28,0.00,,---,0.00,VWS V14.01,2013-03-14 08:18:00,
2013-03-14 01:23:00,59.7,26.6,30.06,NNW,338,0.0,0.0,28,0.00,,---,0.00,VWS V14.01,2013-03-14 08:23:00,
2013-03-14 01:28:00,59.9,26.7,30.06,North,0,0.0,0.0,28,0.00,,---,0.00,VWS V14.01,2013-03-14 08:28:00,
2013-03-14 01:33:00,60.1,26.0,30.06,NNW,338,0.0,0.0,27,0.00,,---,0.00,VWS V14.01,2013-03-14 08:33:00,
2013-03-14 01:38:00,60.4,26.3,30.06,North,0,0.0,0.0,27,0.00,,---,0.00,VWS V14.01,2013-03-14 08:38:00,
2013-03-14 01:43:00,60.6,26.5,30.06,NNW,338,0.0,0.0,27,0.00,,---,0.00,VWS V14.01,2013-03-14 08:43:00,
2013-03-14 01:48:00,60.8,26.6,30.06,NW,315,0.0,0.0,27,0.00,,---,0.00,VWS V14.01,2013-03-14 08:48:00,
2013-03-14 01:53:00,60.6,26.5,30.06,NW,315,0.0,0.0,27,0.00,,---,0.00,VWS V14.01,2013-03-14 08:53:00,
2013-03-14 01:58:00,60.6,26.5,30.06,NW,315,0.0,0.0,27,0.00,,---,0.00,VWS V14.01,2013-03-14 08:58:00,
2013-03-14 02:03:00,60.8,25.7,30.06,NNW,338,0.0,0.0,26,0.00,,---,0.00,VWS V14.01,2013-03-14 09:03:00,
2013-03-14 02:08:00,60.6,26.5,30.06,North,0,0.0,0.0,27,0.00,,---,0.00,VWS V14.01,2013-03-14 09:08:00,
2013-03-14 02:13:00,60.8,25.7,30.03,NNW,338,0.0,0.0,26,0.00,,---,0.00,VWS V14.01,2013-03-14 09:13:00,
2013-03-14 02:19:00,60.6,26.5,30.03,NNW,338,0.0,0.0,27,0.00,,---,0.00,VWS V14.01,2013-03-14 09:19:00,
2013-03-14 02:24:00,60.6,26.5,30.03,NNW,338,0.0,0.0,27,0.00,,---,0.00,VWS V14.01,2013-03-14 09:24:00,
2013-03-14 02:29:00,60.6,26.5,30.03,NNW,338,0.0,0.0,27,0.00,,---,0.00,VWS V14.01,2013-03-14 09:29:00,
2013-03-14 02:34:00,60.3,26.2,30.03,NNW,338,0.0,0.0,27,0.00,,---,0.00,VWS V14.01,2013-03-14 09:34:00,
2013-03-14 02:39:00,60.1,26.0,30.03,NNW,338,0.0,0.0,27,0.00,,---,0.00,VWS V14.01,2013-03-14 09:39:00,
2013-03-14 02:44:00,60.1,26.0,30.03,North,0,0.0,0.0,27,0.00,,---,0.00,VWS V14.01,2013-03-14 09:44:00,
2013-03-14 02:49:00,59.9,25.9,30.03,NNW,338,0.0,0.0,27,0.00,,---,0.00,VWS V14.01,2013-03-14 09:49:00,
2013-03-14 02:54:00,59.5,25.5,30.03,NE,45,0.0,0.0,27,0.00,,---,0.00,VWS V14.01,2013-03-14 09:54:00,
2013-03-14 02:59:00,58.6,25.6,30.03,NNE,22,0.0,0.0,28,0.00,,---,0.00,VWS V14.01,2013-03-14 09:59:00,
2013-03-14 03:04:00,58.1,25.2,30.03,ENE,68,0.0,0.0,28,0.00,,---,0.00,VWS V14.01,2013-03-14 10:04:00,
2013-03-14 03:09:00,57.6,24.7,30.03,North,0,0.0,0.0,28,0.00,,---,0.00,VWS V14.01,2013-03-14 10:09:00,
2013-03-14 03:14:00,57.2,25.2,30.03,NE,45,0.0,0.0,29,0.00,,---,0.00,VWS V14.01,2013-03-14 10:14:00,
2013-03-14 03:19:00,56.8,24.9,30.03,East,90,0.0,0.0,29,0.00,,---,0.00,VWS V14.01,2013-03-14 10:19:00,
2013-03-14 03:25:00,56.3,24.5,30.03,ENE,68,0.0,0.0,29,0.00,,---,0.00,VWS V14.01,2013-03-14 10:25:00,
2013-03-14 03:30:00,55.9,24.2,30.03,North,0,0.0,0.0,29,0.00,,---,0.00,VWS V14.01,2013-03-14 10:30:00,
2013-03-14 03:35:00,55.8,24.8,30.03,North,0,0.0,0.0,30,0.00,,---,0.00,VWS V14.01,2013-03-14 10:35:00,
2013-03-14 03:40:00,55.8,25.6,30.03,North,0,0.0,0.0,31,0.00,,---,0.00,VWS V14.01,2013-03-14 10:40:00,
2013-03-14 03:45:00,55.9,25.8,30.03,NW,315,0.0,0.0,31,0.00,,---,0.00,VWS V14.01,2013-03-14 10:45:00,
2013-03-14 03:50:00,55.9,25.8,30.03,NW,315,0.0,0.0,31,0.00,,---,0.00,VWS V14.01,2013-03-14 10:50:00,
2013-03-14 03:55:00,55.8,25.6,30.03,NNW,338,0.0,0.0,31,0.00,,---,0.00,VWS V14.01,2013-03-14 10:55:00,
2013-03-14 04:00:00,55.8,26.4,30.03,North,0,0.0,0.0,32,0.00,,---,0.00,VWS V14.01,2013-03-14 11:00:00,
2013-03-14 04:05:00,55.8,26.4,30.03,NNW,338,0.0,0.0,32,0.00,,---,0.00,VWS V14.01,2013-03-14 11:05:00,
2013-03-14 04:10:00,55.9,26.5,30.03,NNW,338,0.0,0.0,32,0.00,,---,0.00,VWS V14.01,2013-03-14 11:10:00,
2013-03-14 04:15:00,55.8,26.4,30.03,NNW,338,0.0,0.0,32,0.00,,---,0.00,VWS V14.01,2013-03-14 11:15:00,
2013-03-14 04:20:00,55.6,26.2,30.03,NNW,338,0.0,0.0,32,0.00,,---,0.00,VWS V14.01,2013-03-14 11:20:00,
2013-03-14 04:25:00,55.9,26.5,30.03,North,0,0.0,0.0,32,0.00,,---,0.00,VWS V14.01,2013-03-14 11:25:00,
2013-03-14 04:30:00,55.8,26.4,30.03,NE,45,0.0,0.0,32,0.00,,---,0.00,VWS V14.01,2013-03-14 11:30:00,
2013-03-14 04:35:00,55.9,26.5,30.03,NE,45,0.0,0.0,32,0.00,,---,0.00,VWS V14.01,2013-03-14 11:35:00,
2013-03-14 04:40:00,55.9,27.3,30.03,NE,45,0.0,0.0,33,0.00,,---,0.00,VWS V14.01,2013-03-14 11:40:00,
2013-03-14 04:45:00,55.9,27.3,30.03,NNW,338,0.0,0.0,33,0.00,,---,0.00,VWS V14.01,2013-03-14 11:45:00,
2013-03-14 04:51:00,55.9,27.3,30.03,North,0,0.0,0.0,33,0.00,,---,0.00,VWS V14.01,2013-03-14 11:51:00,
2013-03-14 04:56:00,55.8,27.1,30.03,NNE,22,0.0,0.0,33,0.00,,---,0.00,VWS V14.01,2013-03-14 11:56:00,
2013-03-14 05:01:00,55.2,27.4,30.06,NNE,22,0.0,0.0,34,0.00,,---,0.00,VWS V14.01,2013-03-14 12:01:00,
2013-03-14 05:06:00,54.9,27.8,30.06,NW,315,0.0,0.0,35,0.00,,---,0.00,VWS V14.01,2013-03-14 12:06:00,
2013-03-14 05:11:00,54.9,27.8,30.06,NNW,338,0.0,0.0,35,0.00,,---,0.00,VWS V14.01,2013-03-14 12:11:00,
2013-03-14 05:16:00,54.9,27.8,30.06,WNW,292,0.0,0.0,35,0.00,,---,0.00,VWS V14.01,2013-03-14 12:16:00,
2013-03-14 05:21:00,55.0,27.9,30.06,NNW,338,0.0,0.0,35,0.00,,---,0.00,VWS V14.01,2013-03-14 12:21:00,
2013-03-14 05:27:00,55.4,28.2,30.06,NNW,338,0.0,0.0,35,0.00,,---,0.00,VWS V14.01,2013-03-14 12:27:00,
2013-03-14 05:32:00,55.6,28.4,30.06,NNW,338,0.0,0.0,35,0.00,,---,0.00,VWS V14.01,2013-03-14 12:32:00,
2013-03-14 05:37:00,55.8,28.5,30.06,NNW,338,0.0,0.0,35,0.00,,---,0.00,VWS V14.01,2013-03-14 12:37:00,
2013-03-14 05:42:00,55.4,28.2,30.06,NE,45,0.0,0.0,35,0.00,,---,0.00,VWS V14.01,2013-03-14 12:42:00,
2013-03-14 05:47:00,55.0,27.9,30.06,East,90,0.0,0.0,35,0.00,,---,0.00,VWS V14.01,2013-03-14 12:47:00,
2013-03-14 05:52:00,54.9,27.8,30.06,NNW,338,0.0,0.0,35,0.00,,---,0.00,VWS V14.01,2013-03-14 12:52:00,
2013-03-14 05:57:00,55.0,27.9,30.06,North,0,0.0,0.0,35,0.00,,---,0.00,VWS V14.01,2013-03-14 12:57:00,
2013-03-14 06:02:00,55.0,27.9,30.06,NNW,338,0.0,0.0,35,0.00,,---,0.00,VWS V14.01,2013-03-14 13:02:00,
2013-03-14 06:07:00,54.9,28.4,30.06,North,0,0.0,0.0,36,0.00,,---,0.00,VWS V14.01,2013-03-14 13:07:00,
2013-03-14 06:12:00,54.9,28.4,30.06,NNW,338,0.0,0.0,36,0.00,,---,0.00,VWS V14.01,2013-03-14 13:12:00,
2013-03-14 06:17:00,54.9,28.4,30.06,North,0,0.0,0.0,36,0.00,,---,0.00,VWS V14.01,2013-03-14 13:17:00,
2013-03-14 06:22:00,54.5,28.1,30.06,ENE,68,0.0,0.0,36,0.00,,---,0.00,VWS V14.01,2013-03-14 13:22:00,
2013-03-14 06:27:00,54.1,27.8,30.06,ENE,68,0.0,0.0,36,0.00,,---,0.00,VWS V14.01,2013-03-14 13:27:00,
2013-03-14 06:32:00,54.1,27.8,30.06,NNE,22,0.0,0.0,36,0.00,,---,0.00,VWS V14.01,2013-03-14 13:32:00,
2013-03-14 06:37:00,54.1,27.8,30.06,NW,315,0.0,0.0,36,0.00,,---,0.00,VWS V14.01,2013-03-14 13:37:00,
2013-03-14 06:42:00,54.1,27.8,30.06,NNE,22,0.0,0.0,36,0.00,,---,0.00,VWS V14.01,2013-03-14 13:42:00,
2013-03-14 06:47:00,54.1,27.8,30.06,East,90,0.0,0.0,36,0.00,,---,0.00,VWS V14.01,2013-03-14 13:47:00,
2013-03-14 06:52:00,54.3,28.0,30.06,NE,45,0.0,0.0,36,0.00,,---,0.00,VWS V14.01,2013-03-14 13:52:00,
2013-03-14 06:57:00,54.1,27.8,30.06,East,90,0.0,0.0,36,0.00,,---,0.00,VWS V14.01,2013-03-14 13:57:00,
2013-03-14 07:02:00,54.1,27.8,30.06,NE,45,0.0,0.0,36,0.00,,---,0.00,VWS V14.01,2013-03-14 14:02:00,
2013-03-14 07:08:00,54.5,28.1,30.06,East,90,0.0,0.0,36,0.00,,---,0.00,VWS V14.01,2013-03-14 14:08:00,
2013-03-14 07:13:00,54.7,28.3,30.09,ESE,112,0.0,0.0,36,0.00,,---,0.00,VWS V14.01,2013-03-14 14:13:00,
2013-03-14 07:18:00,55.2,28.8,30.09,ENE,68,0.0,0.0,36,0.00,,---,0.00,VWS V14.01,2013-03-14 14:18:00,
2013-03-14 07:23:00,55.6,29.1,30.09,ENE,68,0.0,0.0,36,0.00,,---,0.00,VWS V14.01,2013-03-14 14:23:00,
2013-03-14 07:28:00,56.1,29.5,30.09,ENE,68,0.0,0.0,36,0.00,,---,0.00,VWS V14.01,2013-03-14 14:28:00,
2013-03-14 07:33:00,56.7,30.0,30.09,NE,45,0.0,0.0,36,0.00,,---,0.00,VWS V14.01,2013-03-14 14:33:00,
2013-03-14 07:38:00,57.6,30.1,30.09,NE,45,0.0,0.0,35,0.00,,---,0.00,VWS V14.01,2013-03-14 14:38:00,
2013-03-14 07:43:00,59.0,31.4,30.09,East,90,0.0,0.0,35,0.00,,---,0.00,VWS V14.01,2013-03-14 14:43:00,
2013-03-14 07:48:00,60.6,32.8,30.09,East,90,0.0,0.0,35,0.00,,---,0.00,VWS V14.01,2013-03-14 14:48:00,
2013-03-14 07:53:00,62.1,33.4,30.09,East,90,0.0,0.0,34,0.00,,---,0.00,VWS V14.01,2013-03-14 14:53:00,
2013-03-14 07:58:00,63.5,34.7,30.09,ESE,112,0.0,0.0,34,0.00,,---,0.00,VWS V14.01,2013-03-14 14:58:00,
2013-03-14 08:03:00,64.2,35.3,30.09,East,90,0.0,0.0,34,0.00,,---,0.00,VWS V14.01,2013-03-14 15:03:00,
2013-03-14 08:08:00,65.7,35.8,30.09,ENE,68,0.0,0.0,33,0.00,,---,0.00,VWS V14.01,2013-03-14 15:08:00,
2013-03-14 08:13:00,67.5,37.4,30.09,ENE,68,0.0,0.0,33,0.00,,---,0.00,VWS V14.01,2013-03-14 15:13:00,
2013-03-14 08:18:00,69.1,38.0,30.09,SE,135,0.0,0.0,32,0.00,,---,0.00,VWS V14.01,2013-03-14 15:18:00,
2013-03-14 08:24:00,70.3,39.1,30.09,ESE,112,0.0,0.0,32,0.00,,---,0.00,VWS V14.01,2013-03-14 15:24:00,
2013-03-14 08:29:00,71.1,38.1,30.09,East,90,2.2,2.2,30,0.00,,---,0.00,VWS V14.01,2013-03-14 15:29:00,
2013-03-14 08:34:00,71.1,38.1,30.09,East,90,2.0,2.7,30,0.00,,---,0.00,VWS V14.01,2013-03-14 15:34:00,
2013-03-14 08:39:00,71.1,37.2,30.09,SE,135,1.6,1.6,29,0.00,,---,0.00,VWS V14.01,2013-03-14 15:39:00,
2013-03-14 08:44:00,71.1,37.2,30.12,East,90,0.0,0.0,29,0.00,,---,0.00,VWS V14.01,2013-03-14 15:44:00,
2013-03-14 08:49:00,71.1,37.2,30.12,SE,135,2.9,2.9,29,0.00,,---,0.00,VWS V14.01,2013-03-14 15:49:00,
2013-03-14 08:54:00,71.2,36.5,30.12,East,90,3.6,3.6,28,0.00,,---,0.00,VWS V14.01,2013-03-14 15:54:00,
2013-03-14 08:59:00,71.6,36.8,30.12,ESE,112,0.0,2.5,28,0.00,,---,0.00,VWS V14.01,2013-03-14 15:59:00,
2013-03-14 09:04:00,71.8,37.0,30.12,ESE,112,1.3,1.3,28,0.00,,---,0.00,VWS V14.01,2013-03-14 16:04:00,
2013-03-14 09:09:00,72.3,36.5,30.12,East,90,0.0,0.0,27,0.00,,---,0.00,VWS V14.01,2013-03-14 16:09:00,
2013-03-14 09:14:00,72.9,37.0,30.12,ESE,112,0.0,0.0,27,0.00,,---,0.00,VWS V14.01,2013-03-14 16:14:00,
2013-03-14 09:19:00,73.4,37.4,30.12,ESE,112,0.0,0.0,27,0.00,,---,0.00,VWS V14.01,2013-03-14 16:19:00,
2013-03-14 09:24:00,74.1,37.1,30.12,ESE,112,0.0,2.7,26,0.00,,---,0.00,VWS V14.01,2013-03-14 16:24:00,
2013-03-14 09:29:00,75.0,37.8,30.09,SE,135,0.0,0.0,26,0.00,,---,0.00,VWS V14.01,2013-03-14 16:29:00,
2013-03-14 09:34:00,75.9,37.6,30.09,East,90,2.2,2.2,25,0.00,,---,0.00,VWS V14.01,2013-03-14 16:34:00,
2013-03-14 09:39:00,76.6,37.2,30.09,East,90,1.1,1.1,24,0.00,,---,0.00,VWS V14.01,2013-03-14 16:39:00,
2013-03-14 09:44:00,77.2,36.5,30.09,East,90,0.0,0.0,23,0.00,,---,0.00,VWS V14.01,2013-03-14 16:44:00,
2013-03-14 09:49:00,77.9,37.2,30.09,East,90,0.0,0.0,23,0.00,,---,0.00,VWS V14.01,2013-03-14 16:49:00,
2013-03-14 09:54:00,78.3,36.3,30.09,SSE,158,0.0,0.0,22,0.00,,---,0.00,VWS V14.01,2013-03-14 16:54:00,
2013-03-14 09:59:00,78.8,36.8,30.09,North,0,0.0,0.0,22,0.00,,---,0.00,VWS V14.01,2013-03-14 16:59:00,
2013-03-14 10:04:00,79.2,37.1,30.09,SSW,202,0.0,0.0,22,0.00,,---,0.00,VWS V14.01,2013-03-14 17:04:00,
2013-03-14 10:09:00,79.7,37.5,30.09,East,90,0.0,0.0,22,0.00,,---,0.00,VWS V14.01,2013-03-14 17:09:00,
2013-03-14 10:14:00,80.1,36.7,30.09,ENE,68,0.0,0.0,21,0.00,,---,0.00,VWS V14.01,2013-03-14 17:14:00,
2013-03-14 10:19:00,80.6,37.1,30.09,ESE,112,0.0,0.0,21,0.00,,---,0.00,VWS V14.01,2013-03-14 17:19:00,
2013-03-14 10:24:00,82.2,38.4,30.09,East,90,1.6,2.5,21,0.00,,---,0.00,VWS V14.01,2013-03-14 17:24:00,
2013-03-14 10:29:00,82.4,37.3,30.09,NNW,338,0.0,0.0,20,0.00,,---,0.00,VWS V14.01,2013-03-14 17:29:00,
2013-03-14 10:34:00,82.4,37.3,30.09,NNW,338,0.0,0.0,20,0.00,,---,0.00,VWS V14.01,2013-03-14 17:34:00,
2013-03-14 10:39:00,82.4,37.3,30.09,SW,225,0.0,0.0,20,0.00,,---,0.00,VWS V14.01,2013-03-14 17:39:00,
2013-03-14 10:44:00,82.8,37.6,30.09,SW,225,0.0,0.0,20,0.00,,---,0.00,VWS V14.01,2013-03-14 17:44:00,
2013-03-14 10:49:00,83.1,37.9,30.09,SW,225,0.0,0.0,20,0.00,,---,0.00,VWS V14.01,2013-03-14 17:49:00,
2013-03-14 10:54:00,83.7,38.4,30.09,South,180,0.0,0.0,20,0.00,,---,0.00,VWS V14.01,2013-03-14 17:54:00,
2013-03-14 11:00:00,84.2,38.8,30.09,SSE,158,0.0,0.0,20,0.00,,---,0.00,VWS V14.01,2013-03-14 18:00:00,
2013-03-14 11:05:00,85.1,39.6,30.09,East,90,0.0,0.0,20,0.00,,---,0.00,VWS V14.01,2013-03-14 18:05:00,
2013-03-14 11:10:00,85.3,39.7,30.09,WSW,248,0.0,0.0,20,0.00,,---,0.00,VWS V14.01,2013-03-14 18:10:00,
2013-03-14 11:15:00,85.6,38.7,30.09,SSW,202,0.0,0.0,19,0.00,,---,0.00,VWS V14.01,2013-03-14 18:15:00,
2013-03-14 11:20:00,86.2,39.1,30.09,NNE,22,0.0,0.0,19,0.00,,---,0.00,VWS V14.01,2013-03-14 18:20:00,
2013-03-14 11:25:00,86.7,39.6,30.09,WSW,248,0.0,0.0,19,0.00,,---,0.00,VWS V14.01,2013-03-14 18:25:00,
2013-03-14 11:30:00,87.1,39.9,30.09,West,270,0.0,0.0,19,0.00,,---,0.00,VWS V14.01,2013-03-14 18:30:00,
2013-03-14 11:35:00,87.1,39.9,30.09,SW,225,0.0,0.0,19,0.00,,---,0.00,VWS V14.01,2013-03-14 18:35:00,
2013-03-14 11:40:00,87.3,40.0,30.09,SSW,202,0.0,0.0,19,0.00,,---,0.00,VWS V14.01,2013-03-14 18:40:00,
2013-03-14 11:45:00,87.8,40.5,30.09,SE,135,0.0,0.0,19,0.00,,---,0.00,VWS V14.01,2013-03-14 18:45:00,
2013-03-14 11:50:00,87.6,40.3,30.09,East,90,0.0,0.0,19,0.00,,---,0.00,VWS V14.01,2013-03-14 18:50:00,
2013-03-14 11:55:00,87.4,40.2,30.09,South,180,0.0,0.0,19,0.00,,---,0.00,VWS V14.01,2013-03-14 18:55:00,
2013-03-14 12:00:00,87.8,39.1,30.06,SE,135,0.0,0.0,18,0.00,,---,0.00,VWS V14.01,2013-03-14 19:00:00,
2013-03-14 12:05:00,88.2,39.4,30.06,SE,135,0.0,0.0,18,0.00,,---,0.00,VWS V14.01,2013-03-14 19:05:00,
2013-03-14 12:10:00,88.3,39.5,30.06,East,90,0.0,0.0,18,0.00,,---,0.00,VWS V14.01,2013-03-14 19:10:00,
2013-03-14 12:15:00,88.3,39.5,30.06,South,180,0.0,0.0,18,0.00,,---,0.00,VWS V14.01,2013-03-14 19:15:00,
2013-03-14 12:20:00,88.5,39.7,30.06,WNW,292,0.0,0.0,18,0.00,,---,0.00,VWS V14.01,2013-03-14 19:20:00,
2013-03-14 12:25:00,88.5,39.7,30.06,WSW,248,0.0,0.0,18,0.00,,---,0.00,VWS V14.01,2013-03-14 19:25:00,
2013-03-14 12:30:00,88.7,39.8,30.06,WSW,248,0.0,0.0,18,0.00,,---,0.00,VWS V14.01,2013-03-14 19:30:00,
2013-03-14 12:35:00,88.7,39.8,30.06,West,270,0.0,0.0,18,0.00,,---,0.00,VWS V14.01,2013-03-14 19:35:00,
2013-03-14 12:40:00,88.5,39.7,30.06,SW,225,0.0,0.0,18,0.00,,---,0.00,VWS V14.01,2013-03-14 19:40:00,
2013-03-14 12:45:00,88.9,39.9,30.06,ESE,112,0.0,0.0,18,0.00,,---,0.00,VWS V14.01,2013-03-14 19:45:00,
2013-03-14 12:51:00,89.1,40.1,30.06,SW,225,0.0,0.0,18,0.00,,---,0.00,VWS V14.01,2013-03-14 19:51:00,
2013-03-14 12:56:00,88.5,39.7,30.06,SW,225,0.0,0.0,18,0.00,,---,0.00,VWS V14.01,2013-03-14 19:56:00,
2013-03-14 13:01:00,88.9,39.9,30.03,NW,315,0.0,0.0,18,0.00,,---,0.00,VWS V14.01,2013-03-14 20:01:00,
2013-03-14 13:06:00,88.7,39.8,30.03,SW,225,0.0,0.0,18,0.00,,---,0.00,VWS V14.01,2013-03-14 20:06:00,
2013-03-14 13:11:00,88.9,39.9,30.03,NE,45,0.0,0.0,18,0.00,,---,0.00,VWS V14.01,2013-03-14 20:11:00,
2013-03-14 13:16:00,89.1,40.1,30.03,NW,315,0.0,0.0,18,0.00,,---,0.00,VWS V14.01,2013-03-14 20:16:00,
2013-03-14 13:21:00,89.2,40.2,30.03,North,0,0.0,0.0,18,0.00,,---,0.00,VWS V14.01,2013-03-14 20:21:00,
2013-03-14 13:26:00,89.6,39.1,30.03,WSW,248,0.0,0.0,17,0.00,,---,0.00,VWS V14.01,2013-03-14 20:26:00,
2013-03-14 13:31:00,89.4,35.7,30.03,NNE,22,0.0,0.0,15,0.00,,---,0.00,VWS V14.01,2013-03-14 20:31:00,
2013-03-14 13:37:00,88.7,35.2,30.03,WNW,292,0.0,0.0,15,0.00,,---,0.00,VWS V14.01,2013-03-14 20:37:00,
2013-03-14 13:42:00,88.5,35.0,30.03,West,270,3.8,3.8,15,0.00,,---,0.00,VWS V14.01,2013-03-14 20:42:00,
2013-03-14 13:47:00,88.3,34.9,30.03,North,0,0.0,0.0,15,0.00,,---,0.00,VWS V14.01,2013-03-14 20:47:00,
2013-03-14 13:52:00,88.9,35.3,30.03,ENE,68,0.0,5.4,15,0.00,,---,0.00,VWS V14.01,2013-03-14 20:52:00,
2013-03-14 13:57:00,89.1,35.5,30.03,WNW,292,0.0,0.0,15,0.00,,---,0.00,VWS V14.01,2013-03-14 20:57:00,
2013-03-14 14:02:00,89.1,35.5,30.00,NNW,338,2.9,2.9,15,0.00,,---,0.00,VWS V14.01,2013-03-14 21:02:00,
2013-03-14 14:07:00,88.5,35.0,30.00,WNW,292,0.0,0.0,15,0.00,,---,0.00,VWS V14.01,2013-03-14 21:07:00,
2013-03-14 14:12:00,88.7,35.2,30.00,WSW,248,0.0,0.0,15,0.00,,---,0.00,VWS V14.01,2013-03-14 21:12:00,
2013-03-14 14:17:00,89.2,35.6,30.00,NNW,338,0.0,0.0,15,0.00,,---,0.00,VWS V14.01,2013-03-14 21:17:00,
2013-03-14 14:22:00,88.9,35.3,30.00,WSW,248,0.0,0.0,15,0.00,,---,0.00,VWS V14.01,2013-03-14 21:22:00,
2013-03-14 14:27:00,89.6,35.9,30.00,SSE,158,0.0,0.0,15,0.00,,---,0.00,VWS V14.01,2013-03-14 21:27:00,
2013-03-14 14:32:00,90.0,36.2,30.00,WNW,292,0.0,0.0,15,0.00,,---,0.00,VWS V14.01,2013-03-14 21:32:00,
2013-03-14 14:37:00,90.1,36.3,30.00,WSW,248,0.0,0.0,15,0.00,,---,0.00,VWS V14.01,2013-03-14 21:37:00,
2013-03-14 14:42:00,89.8,36.0,30.00,ENE,68,0.0,0.0,15,0.00,,---,0.00,VWS V14.01,2013-03-14 21:42:00,
2013-03-14 14:47:00,89.8,36.0,30.00,SE,135,0.0,0.0,15,0.00,,---,0.00,VWS V14.01,2013-03-14 21:47:00,
2013-03-14 14:53:00,90.7,36.7,30.00,SSE,158,0.0,0.0,15,0.00,,---,0.00,VWS V14.01,2013-03-14 21:53:00,
2013-03-14 14:57:00,90.9,36.9,30.00,NW,315,0.0,0.0,15,0.00,,---,0.00,VWS V14.01,2013-03-14 21:57:00,
2013-03-14 15:03:00,90.3,36.5,30.00,ESE,112,0.0,0.0,15,0.00,,---,0.00,VWS V14.01,2013-03-14 22:03:00,
2013-03-14 15:08:00,90.1,36.3,30.00,NNW,338,0.0,0.0,15,0.00,,---,0.00,VWS V14.01,2013-03-14 22:08:00,
2013-03-14 15:13:00,89.8,36.0,30.00,ESE,112,0.0,0.0,15,0.00,,---,0.00,VWS V14.01,2013-03-14 22:13:00,
2013-03-14 15:18:00,90.1,36.3,30.00,West,270,0.0,0.0,15,0.00,,---,0.00,VWS V14.01,2013-03-14 22:18:00,
2013-03-14 15:23:00,90.0,36.2,30.00,East,90,0.0,0.0,15,0.00,,---,0.00,VWS V14.01,2013-03-14 22:23:00,
2013-03-14 15:28:00,90.1,36.3,30.00,SSW,202,0.0,0.0,15,0.00,,---,0.00,VWS V14.01,2013-03-14 22:28:00,
2013-03-14 15:33:00,90.7,36.7,30.00,WSW,248,0.0,0.0,15,0.00,,---,0.00,VWS V14.01,2013-03-14 22:33:00,
2013-03-14 15:38:00,90.5,36.6,30.00,NW,315,0.0,0.0,15,0.00,,---,0.00,VWS V14.01,2013-03-14 22:38:00,
2013-03-14 15:43:00,89.8,36.0,30.00,NW,315,0.0,0.0,15,0.00,,---,0.00,VWS V14.01,2013-03-14 22:43:00,
2013-03-14 15:48:00,89.4,35.7,30.00,NNW,338,0.0,0.0,15,0.00,,---,0.00,VWS V14.01,2013-03-14 22:48:00,
2013-03-14 15:53:00,89.2,35.6,30.00,NNW,338,0.0,0.0,15,0.00,,---,0.00,VWS V14.01,2013-03-14 22:53:00,
2013-03-14 15:58:00,89.4,35.7,29.97,East,90,0.0,0.0,15,0.00,,---,0.00,VWS V14.01,2013-03-14 22:58:00,
2013-03-14 16:03:00,89.8,36.0,29.97,NE,45,0.0,0.0,15,0.00,,---,0.00,VWS V14.01,2013-03-14 23:03:00,
2013-03-14 16:08:00,90.0,36.2,29.97,North,0,0.0,0.0,15,0.00,,---,0.00,VWS V14.01,2013-03-14 23:08:00,
2013-03-14 16:13:00,90.0,36.2,29.97,East,90,0.0,0.0,15,0.00,,---,0.00,VWS V14.01,2013-03-14 23:13:00,
2013-03-14 16:18:00,89.4,35.7,29.97,NW,315,0.0,0.0,15,0.00,,---,0.00,VWS V14.01,2013-03-14 23:18:00,
2013-03-14 16:23:00,89.8,36.0,29.97,SW,225,0.0,0.0,15,0.00,,---,0.00,VWS V14.01,2013-03-14 23:23:00,
2013-03-14 16:28:00,90.7,36.7,30.00,NW,315,0.0,2.5,15,0.00,,---,0.00,VWS V14.01,2013-03-14 23:28:00,
2013-03-14 16:33:00,91.2,37.2,30.00,NNW,338,0.0,0.0,15,0.00,,---,0.00,VWS V14.01,2013-03-14 23:33:00,
2013-03-14 16:39:00,91.2,37.2,30.00,WSW,248,1.1,1.1,15,0.00,,---,0.00,VWS V14.01,2013-03-14 23:39:00,
2013-03-14 16:44:00,91.2,37.2,29.97,NW,315,0.0,0.0,15,0.00,,---,0.00,VWS V14.01,2013-03-14 23:44:00,
2013-03-14 16:49:00,91.2,37.2,29.97,SW,225,0.0,1.3,15,0.00,,---,0.00,VWS V14.01,2013-03-14 23:49:00,
2013-03-14 16:54:00,90.9,36.9,29.97,SW,225,0.0,0.0,15,0.00,,---,0.00,VWS V14.01,2013-03-14 23:54:00,
2013-03-14 16:59:00,90.9,36.9,29.97,SSW,202,0.0,0.0,15,0.00,,---,0.00,VWS V14.01,2013-03-14 23:59:00,
2013-03-14 17:04:00,90.5,36.6,29.97,SW,225,0.0,0.0,15,0.00,,---,0.00,VWS V14.01,2013-03-15 00:04:00,
2013-03-14 17:09:00,90.0,36.2,29.97,WSW,248,0.0,0.0,15,0.00,,---,0.00,VWS V14.01,2013-03-15 00:09:00,
2013-03-14 17:14:00,89.4,35.7,29.97,NNW,338,0.0,0.0,15,0.00,,---,0.00,VWS V14.01,2013-03-15 00:14:00,
2013-03-14 17:19:00,89.1,35.5,29.97,SW,225,1.6,1.6,15,0.00,,---,0.00,VWS V14.01,2013-03-15 00:19:00,
2013-03-14 17:24:00,88.7,35.2,29.97,NNW,338,0.0,0.0,15,0.00,,---,0.00,VWS V14.01,2013-03-15 00:24:00,
2013-03-14 17:29:00,88.7,35.2,30.00,WSW,248,0.0,0.0,15,0.00,,---,0.00,VWS V14.01,2013-03-15 00:29:00,
2013-03-14 17:34:00,88.5,35.0,30.00,West,270,0.0,0.0,15,0.00,,---,0.00,VWS V14.01,2013-03-15 00:34:00,
2013-03-14 17:39:00,88.5,35.0,30.00,SW,225,0.0,0.0,15,0.00,,---,0.00,VWS V14.01,2013-03-15 00:39:00,
2013-03-14 17:44:00,88.3,34.9,29.97,NW,315,0.0,0.0,15,0.00,,---,0.00,VWS V14.01,2013-03-15 00:44:00,
2013-03-14 17:49:00,87.8,34.5,29.97,West,270,0.0,0.0,15,0.00,,---,0.00,VWS V14.01,2013-03-15 00:49:00,
2013-03-14 17:54:00,87.1,35.5,29.97,SSW,202,2.5,2.5,16,0.00,,---,0.00,VWS V14.01,2013-03-15 00:54:00,
2013-03-14 17:59:00,86.0,34.6,29.97,NW,315,0.0,0.0,16,0.00,,---,0.00,VWS V14.01,2013-03-15 00:59:00,
2013-03-14 18:04:00,85.1,33.9,29.97,South,180,0.0,0.0,16,0.00,,---,0.00,VWS V14.01,2013-03-15 01:04:00,
2013-03-14 18:09:00,84.2,33.2,29.97,South,180,0.0,0.0,16,0.00,,---,0.00,VWS V14.01,2013-03-15 01:09:00,
2013-03-14 18:14:00,83.5,32.6,29.97,NNW,338,0.0,0.0,16,0.00,,---,0.00,VWS V14.01,2013-03-15 01:14:00,
2013-03-14 18:20:00,82.8,32.0,29.97,WNW,292,0.9,0.9,16,0.00,,---,0.00,VWS V14.01,2013-03-15 01:20:00,
2013-03-14 18:25:00,81.9,32.8,29.97,NW,315,0.0,0.0,17,0.00,,---,0.00,VWS V14.01,2013-03-15 01:25:00,
2013-03-14 18:30:00,81.1,32.2,29.97,NW,315,0.0,0.0,17,0.00,,---,0.00,VWS V14.01,2013-03-15 01:30:00,
2013-03-14 18:35:00,80.8,32.0,29.97,NW,315,0.0,0.0,17,0.00,,---,0.00,VWS V14.01,2013-03-15 01:35:00,
2013-03-14 18:40:00,80.1,31.4,29.97,North,0,0.0,0.0,17,0.00,,---,0.00,VWS V14.01,2013-03-15 01:40:00,
2013-03-14 18:45:00,79.3,30.8,29.97,NW,315,0.0,0.0,17,0.00,,---,0.00,VWS V14.01,2013-03-15 01:45:00,
2013-03-14 18:50:00,79.2,34.7,29.97,West,270,0.0,0.0,20,0.00,,---,0.00,VWS V14.01,2013-03-15 01:50:00,
2013-03-14 18:55:00,78.8,34.4,29.97,NNW,338,0.0,0.0,20,0.00,,---,0.00,VWS V14.01,2013-03-15 01:55:00,
2013-03-14 19:00:00,78.3,33.9,29.97,NNW,338,0.0,0.0,20,0.00,,---,0.00,VWS V14.01,2013-03-15 02:00:00,
2013-03-14 19:05:00,77.7,33.5,29.97,NNE,22,0.0,0.0,20,0.00,,---,0.00,VWS V14.01,2013-03-15 02:05:00,
2013-03-14 19:10:00,77.2,33.0,29.97,NE,45,0.0,0.0,20,0.00,,---,0.00,VWS V14.01,2013-03-15 02:10:00,
2013-03-14 19:15:00,76.5,32.5,29.97,North,0,0.0,0.0,20,0.00,,---,0.00,VWS V14.01,2013-03-15 02:15:00,
2013-03-14 19:20:00,76.3,32.3,29.97,ENE,68,0.0,0.0,20,0.00,,---,0.00,VWS V14.01,2013-03-15 02:20:00,
2013-03-14 19:25:00,76.3,32.3,29.97,NNE,22,0.0,0.0,20,0.00,,---,0.00,VWS V14.01,2013-03-15 02:25:00,
2013-03-14 19:30:00,76.3,32.3,30.00,NW,315,0.0,0.0,20,0.00,,---,0.00,VWS V14.01,2013-03-15 02:30:00,
2013-03-14 19:35:00,76.1,32.2,30.00,East,90,0.0,0.0,20,0.00,,---,0.00,VWS V14.01,2013-03-15 02:35:00,
2013-03-14 19:40:00,75.6,31.7,30.00,NNE,22,0.0,0.0,20,0.00,,---,0.00,VWS V14.01,2013-03-15 02:40:00,
2013-03-14 19:45:00,75.2,32.6,30.00,NNE,22,0.0,0.0,21,0.00,,---,0.00,VWS V14.01,2013-03-15 02:45:00,
2013-03-14 19:50:00,74.8,32.3,30.00,NE,45,0.0,0.0,21,0.00,,---,0.00,VWS V14.01,2013-03-15 02:50:00,
2013-03-14 19:55:00,74.7,32.2,30.00,NNW,338,0.0,0.0,21,0.00,,---,0.00,VWS V14.01,2013-03-15 02:55:00,
2013-03-14 20:00:00,74.5,32.0,30.00,North,0,0.0,0.0,21,0.00,,---,0.00,VWS V14.01,2013-03-15 03:00:00,
2013-03-14 20:05:00,74.5,32.0,30.00,NE,45,0.0,0.0,21,0.00,,---,0.00,VWS V14.01,2013-03-15 03:05:00,
2013-03-14 20:11:00,74.3,31.9,30.00,NNE,22,0.0,0.0,21,0.00,,---,0.00,VWS V14.01,2013-03-15 03:11:00,
2013-03-14 20:16:00,74.1,31.7,30.03,NNE,22,0.0,0.0,21,0.00,,---,0.00,VWS V14.01,2013-03-15 03:16:00,
2013-03-14 20:21:00,73.8,31.4,30.03,NE,45,0.0,0.0,21,0.00,,---,0.00,VWS V14.01,2013-03-15 03:21:00,
2013-03-14 20:26:00,73.6,31.3,30.03,ENE,68,0.0,0.0,21,0.00,,---,0.00,VWS V14.01,2013-03-15 03:26:00,
2013-03-14 20:31:00,73.2,32.1,30.03,NW,315,0.0,0.0,22,0.00,,---,0.00,VWS V14.01,2013-03-15 03:31:00,
2013-03-14 20:36:00,73.2,32.1,30.03,NE,45,0.0,0.0,22,0.00,,---,0.00,VWS V14.01,2013-03-15 03:36:00,
2013-03-14 20:41:00,73.0,32.0,30.03,NNE,22,0.0,0.0,22,0.00,,---,0.00,VWS V14.01,2013-03-15 03:41:00,
2013-03-14 20:46:00,72.9,31.8,30.03,North,0,0.0,0.0,22,0.00,,---,0.00,VWS V14.01,2013-03-15 03:46:00,
2013-03-14 20:51:00,72.7,31.7,30.03,North,0,0.0,0.0,22,0.00,,---,0.00,VWS V14.01,2013-03-15 03:51:00,
2013-03-14 20:56:00,72.5,31.5,30.03,NE,45,0.0,0.0,22,0.00,,---,0.00,VWS V14.01,2013-03-15 03:56:00,
2013-03-14 21:00:00,72.5,31.5,30.03,NNW,338,2.7,2.7,22,0.00,,---,0.00,VWS V14.01,2013-03-15 04:00:00,
2013-03-14 21:06:00,72.5,31.5,30.03,NNW,338,0.0,0.0,22,0.00,,---,0.00,VWS V14.01,2013-03-15 04:06:00,
2013-03-14 21:11:00,72.5,31.5,30.03,NNW,338,0.0,0.0,22,0.00,,---,0.00,VWS V14.01,2013-03-15 04:11:00,
2013-03-14 21:16:00,72.1,31.2,30.03,North,0,0.0,0.0,22,0.00,,---,0.00,VWS V14.01,2013-03-15 04:16:00,
2013-03-14 21:21:00,72.0,31.1,30.03,NNW,338,0.0,0.0,22,0.00,,---,0.00,VWS V14.01,2013-03-15 04:21:00,
2013-03-14 21:26:00,71.8,30.9,30.03,NW,315,0.0,0.0,22,0.00,,---,0.00,VWS V14.01,2013-03-15 04:26:00,
2013-03-14 21:31:00,71.4,31.7,30.03,NNW,338,0.0,0.0,23,0.00,,---,0.00,VWS V14.01,2013-03-15 04:31:00,
2013-03-14 21:36:00,71.1,31.4,30.03,NNW,338,0.0,0.0,23,0.00,,---,0.00,VWS V14.01,2013-03-15 04:36:00,
2013-03-14 21:41:00,70.7,31.1,30.03,NNW,338,0.0,0.0,23,0.00,,---,0.00,VWS V14.01,2013-03-15 04:41:00,
2013-03-14 21:46:00,70.7,31.1,30.03,NNE,22,0.0,0.0,23,0.00,,---,0.00,VWS V14.01,2013-03-15 04:46:00,
2013-03-14 21:51:00,70.3,30.8,30.03,NNE,22,0.0,0.0,23,0.00,,---,0.00,VWS V14.01,2013-03-15 04:51:00,
2013-03-14 21:57:00,70.0,30.5,30.03,NW,315,0.0,0.0,23,0.00,,---,0.00,VWS V14.01,2013-03-15 04:57:00,
2013-03-14 22:02:00,69.6,30.2,30.03,NNW,338,0.0,0.0,23,0.00,,---,0.00,VWS V14.01,2013-03-15 05:02:00,
2013-03-14 22:07:00,69.4,30.1,30.03,NNW,338,0.0,0.0,23,0.00,,---,0.00,VWS V14.01,2013-03-15 05:07:00,
2013-03-14 22:12:00,69.6,30.2,30.03,NW,315,0.0,0.0,23,0.00,,---,0.00,VWS V14.01,2013-03-15 05:12:00,
2013-03-14 22:17:00,69.3,29.9,30.03,NNW,338,0.0,0.0,23,0.00,,---,0.00,VWS V14.01,2013-03-15 05:17:00,
2013-03-14 22:22:00,69.1,29.8,30.03,NNW,338,0.0,0.0,23,0.00,,---,0.00,VWS V14.01,2013-03-15 05:22:00,
2013-03-14 22:27:00,69.1,29.8,30.03,NNW,338,0.0,0.0,23,0.00,,---,0.00,VWS V14.01,2013-03-15 05:27:00,
2013-03-14 22:32:00,68.9,29.6,30.03,NNW,338,0.0,0.0,23,0.00,,---,0.00,VWS V14.01,2013-03-15 05:32:00,
2013-03-14 22:37:00,68.7,29.5,30.03,NNW,338,0.0,0.0,23,0.00,,---,0.00,VWS V14.01,2013-03-15 05:37:00,
2013-03-14 22:42:00,68.9,29.6,30.03,NNW,338,0.0,0.0,23,0.00,,---,0.00,VWS V14.01,2013-03-15 05:42:00,
2013-03-14 22:47:00,68.7,29.5,30.03,ENE,68,0.0,0.0,23,0.00,,---,0.00,VWS V14.01,2013-03-15 05:47:00,
2013-03-14 22:52:00,68.5,29.3,30.03,WNW,292,0.0,0.0,23,0.00,,---,0.00,VWS V14.01,2013-03-15 05:52:00,
2013-03-14 22:57:00,68.5,29.3,30.03,NW,315,0.0,0.0,23,0.00,,---,0.00,VWS V14.01,2013-03-15 05:57:00,
2013-03-14 23:02:00,68.5,29.3,30.03,NW,315,0.0,0.0,23,0.00,,---,0.00,VWS V14.01,2013-03-15 06:02:00,
2013-03-14 23:08:00,68.4,29.1,30.03,NW,315,0.0,0.0,23,0.00,,---,0.00,VWS V14.01,2013-03-15 06:08:00,
2013-03-14 23:13:00,68.0,28.9,30.03,NNW,338,0.0,0.0,23,0.00,,---,0.00,VWS V14.01,2013-03-15 06:13:00,
2013-03-14 23:18:00,67.5,29.4,30.03,NNW,338,0.0,0.0,24,0.00,,---,0.00,VWS V14.01,2013-03-15 06:18:00,
2013-03-14 23:23:00,66.9,29.0,30.03,North,0,0.0,0.0,24,0.00,,---,0.00,VWS V14.01,2013-03-15 06:23:00,
2013-03-14 23:28:00,66.9,29.0,30.03,North,0,0.0,0.0,24,0.00,,---,0.00,VWS V14.01,2013-03-15 06:28:00,
2013-03-14 23:33:00,67.1,29.1,30.03,NW,315,0.0,0.0,24,0.00,,---,0.00,VWS V14.01,2013-03-15 06:33:00,
2013-03-14 23:38:00,66.9,29.0,30.03,NNW,338,0.0,0.0,24,0.00,,---,0.00,VWS V14.01,2013-03-15 06:38:00,
2013-03-14 23:43:00,66.2,28.4,30.03,NNW,338,0.0,0.0,24,0.00,,---,0.00,VWS V14.01,2013-03-15 06:43:00,
2013-03-14 23:48:00,65.8,28.1,30.03,NNW,338,0.0,0.0,24,0.00,,---,0.00,VWS V14.01,2013-03-15 06:48:00,
2013-03-14 23:53:00,65.5,27.8,30.03,NNW,338,0.0,0.0,24,0.00,,---,0.00,VWS V14.01,2013-03-15 06:53:00,
2013-03-14 23:58:00,65.1,27.5,30.03,NW,315,0.0,0.0,24,0.00,,---,0.00,VWS V14.01,2013-03-15 06:58:00,